Abingdon, VA

4:02 AM EDT on April 27, 2018 (GMT -0400)
Virginia Highlands

Weather History for KVJI - August, 2013

Change the Weather History Date:

Sunday, August 25, 2013

  Actual Average (KTRI) Record (KTRI)
Temperature  
Mean Temperature 68 °F -  
Max Temperature 80 °F 84 °F 96 °F (1943)
Min Temperature 56 °F 61 °F 50 °F (1942)
Cooling Degree Days 3    
Growing Degree Days 18 (Base 50)    
Moisture  
Dew Point 59 °F    
Average Humidity 75    
Maximum Humidity 100    
Minimum Humidity 38    
Precipitation  
Precipitation 0.00 in - - ()
Sea Level Pressure  
Sea Level Pressure 30.38 in    
Wind  
Wind Speed 3 mph (East)    
Max Wind Speed 9 mph    
Max Gust Speed -    
Visibility 10 miles    
Events      
Averages and records for this station are not official NWS values.
T = Trace of Precipitation, MM = Missing Value Source: NWS Daily Summary

Daily Weather History Graph

Daily Weather History Graph

Search for Another Location

Airport or City:

Astronomy

Aug. 25, 2013 Rise Set
Actual Time 6:53 AM EDT 8:05 PM EDT
Civil Twilight 6:26 AM EDT 8:32 PM EDT
Nautical Twilight 5:54 AM EDT 9:04 PM EDT
Astronomical Twilight 5:21 AM EDT 9:37 PM EDT
Moon 10:46 PM EDT (8/25) 11:45 AM EDT (8/25)
Length of Visible Light 14h 05m
Length of Day
13h 12m
Waning Gibbous, 76% of the Moon is Illuminated
Aug 25
Waning Gibbous
Aug 28
Last Quarter
Sep 5
New
Sep 12
First Quarter
Sep 19
Full

Hourly Weather History & Observations

Time (EDT) Temp. Heat Index Dew Point Humidity Pressure Visibility Wind Dir Wind Speed Gust Speed Precip Events Conditions
12:15 AM 62.6 °F - 59.0 °F 88% 30.37 in 10.0 mi East 6.9 mph - N/A   Clear
12:35 AM 62.2 °F - 59.2 °F 90% 30.37 in 10.0 mi East 5.8 mph - N/A   Clear
12:55 AM 61.7 °F - 59.0 °F 91% 30.36 in 10.0 mi Calm Calm - N/A   Clear
1:15 AM 61.3 °F - 58.8 °F 91% 30.37 in 10.0 mi Calm Calm - N/A   Clear
1:35 AM 61.0 °F - 58.6 °F 92% 30.37 in 10.0 mi Calm Calm - N/A   Clear
1:55 AM 61.0 °F - 58.8 °F 93% 30.37 in 10.0 mi Calm Calm - N/A   Clear
2:15 AM 59.2 °F - 58.1 °F 96% 30.36 in 10.0 mi East 4.6 mph - N/A   Clear
2:35 AM 59.7 °F - 58.3 °F 95% 30.36 in 10.0 mi East 4.6 mph - N/A   Clear
2:55 AM 58.5 °F - 58.3 °F 99% 30.35 in 10.0 mi Calm Calm - N/A   Clear
3:15 AM 58.5 °F - 57.9 °F 98% 30.36 in 10.0 mi Calm Calm - N/A   Clear
3:35 AM 58.5 °F - 57.6 °F 97% 30.36 in 10.0 mi East 5.8 mph - N/A   Clear
3:55 AM 58.3 °F - 57.4 °F 97% 30.36 in 10.0 mi East 3.5 mph - N/A   Clear
4:15 AM 59.2 °F - 57.7 °F 95% 30.36 in 10.0 mi Calm Calm - N/A   Clear
4:35 AM 58.1 °F - 57.4 °F 97% 30.36 in 10.0 mi Calm Calm - N/A   Clear
4:55 AM 58.3 °F - 57.4 °F 97% 30.37 in 10.0 mi East 3.5 mph - N/A   Clear
5:15 AM 56.7 °F - 56.7 °F 100% 30.37 in 10.0 mi ESE 3.5 mph - N/A   Clear
5:35 AM 56.5 °F - 56.5 °F 100% 30.38 in 10.0 mi ESE 3.5 mph - N/A   Clear
5:55 AM 56.8 °F - 56.8 °F 100% 30.39 in 10.0 mi Calm Calm - N/A   Clear
6:15 AM 56.8 °F - 56.8 °F 100% 30.40 in 10.0 mi East 3.5 mph - N/A   Clear
6:35 AM 56.8 °F - 56.8 °F 100% 30.40 in 10.0 mi Calm Calm - N/A   Clear
6:55 AM 56.3 °F - 56.3 °F 100% 30.41 in 10.0 mi SSE 3.5 mph - N/A   Clear
7:15 AM 57.0 °F - 57.0 °F 100% 30.42 in 10.0 mi Calm Calm - N/A   Clear
7:35 AM 57.4 °F - 57.4 °F 100% 30.44 in 10.0 mi East 5.8 mph - N/A   Clear
7:55 AM 59.4 °F - 58.5 °F 97% 30.44 in 10.0 mi East 8.1 mph - N/A   Clear
8:15 AM 60.3 °F - 59.2 °F 96% 30.44 in 10.0 mi East 8.1 mph - N/A   Clear
8:35 AM 61.7 °F - 59.9 °F 94% 30.44 in 10.0 mi East 8.1 mph - N/A   Clear
8:55 AM 63.5 °F - 60.3 °F 89% 30.44 in 10.0 mi East 6.9 mph - N/A   Clear
9:15 AM 65.7 °F - 61.5 °F 86% 30.44 in 10.0 mi East 6.9 mph - N/A   Clear
9:35 AM 67.1 °F - 61.3 °F 82% 30.44 in 10.0 mi East 9.2 mph - N/A   Clear
9:55 AM 68.9 °F - 61.2 °F 76% 30.44 in 10.0 mi ESE 6.9 mph - N/A   Clear
10:15 AM 70.7 °F - 62.2 °F 75% 30.44 in 10.0 mi SE 8.1 mph - N/A   Clear
10:35 AM 71.8 °F - 61.5 °F 70% 30.44 in 10.0 mi SE 6.9 mph - N/A   Clear
10:55 AM 72.5 °F - 61.7 °F 69% 30.44 in 10.0 mi ESE 6.9 mph - N/A   Clear
11:15 AM 73.8 °F - 61.7 °F 66% 30.43 in 10.0 mi SE 5.8 mph - N/A   Clear
11:35 AM 74.5 °F - 59.2 °F 59% 30.42 in 10.0 mi SSW 4.6 mph - N/A   Clear
11:55 AM 74.5 °F - 57.9 °F 56% 30.42 in 10.0 mi WNW 3.5 mph - N/A   Clear
12:15 PM 76.1 °F - 57.2 °F 52% 30.43 in 10.0 mi South 3.5 mph - N/A   Clear
12:35 PM 76.3 °F - 57.7 °F 53% 30.42 in 10.0 mi Calm Calm - N/A   Clear
12:55 PM 77.0 °F - 57.7 °F 51% 30.42 in 10.0 mi Calm Calm - N/A   Clear
1:15 PM 76.6 °F - 56.3 °F 49% 30.41 in 10.0 mi NNW 3.5 mph - N/A   Clear
1:35 PM 77.7 °F - 57.9 °F 50% 30.40 in 10.0 mi SE 3.5 mph - N/A   Clear
1:55 PM 78.8 °F - 58.6 °F 50% 30.39 in 10.0 mi West 3.5 mph - N/A   Clear
2:15 PM 77.5 °F - 56.5 °F 48% 30.39 in 10.0 mi East 5.8 mph - N/A   Scattered Clouds
2:35 PM 79.2 °F - 53.8 °F 41% 30.39 in 10.0 mi Calm Calm - N/A   Clear
2:55 PM 79.2 °F - 52.5 °F 39% 30.37 in 10.0 mi ENE 3.5 mph - N/A   Clear
3:15 PM 79.9 °F - 51.8 °F 38% 30.37 in 10.0 mi Calm Calm - N/A   Clear
3:35 PM 80.1 °F 79.9 °F 53.2 °F 39% 30.35 in 10.0 mi Calm Calm - N/A   Clear
3:55 PM 80.2 °F 80.4 °F 56.5 °F 44% 30.35 in 10.0 mi SSW 4.6 mph - N/A   Clear
4:15 PM 79.7 °F - 56.3 °F 44% 30.35 in 10.0 mi Calm Calm - N/A   Clear
4:35 PM 79.7 °F - 57.4 °F 46% 30.35 in 10.0 mi East 8.1 mph - N/A   Clear
4:55 PM 78.8 °F - 57.6 °F 48% 30.35 in 10.0 mi NE 3.5 mph - N/A   Scattered Clouds
5:15 PM 79.0 °F - 58.6 °F 50% 30.35 in 10.0 mi North 4.6 mph - N/A   Clear
5:35 PM 78.4 °F - 57.4 °F 48% 30.34 in 10.0 mi North 5.8 mph - N/A   Clear
5:55 PM 78.3 °F - 57.7 °F 49% 30.34 in 10.0 mi Calm Calm - N/A   Clear
6:15 PM 78.3 °F - 58.6 °F 51% 30.35 in 10.0 mi NE 3.5 mph - N/A   Scattered Clouds
6:35 PM 77.9 °F - 58.6 °F 51% 30.34 in 10.0 mi Calm Calm - N/A   Clear
6:55 PM 77.2 °F - 59.5 °F 54% 30.34 in 10.0 mi Calm Calm - N/A   Scattered Clouds
7:15 PM 76.3 °F - 60.1 °F 57% 30.33 in 10.0 mi Calm Calm - N/A   Scattered Clouds
7:35 PM 75.2 °F - 61.2 °F 62% 30.33 in 10.0 mi Calm Calm - N/A   Clear
7:55 PM 73.2 °F - 62.1 °F 68% 30.33 in 10.0 mi Calm Calm - N/A   Clear
8:15 PM 71.2 °F - 61.7 °F 72% 30.34 in 10.0 mi Calm Calm - N/A   Clear
8:35 PM 70.0 °F - 61.3 °F 74% 30.35 in 10.0 mi Calm Calm - N/A   Clear
8:55 PM 71.1 °F - 60.8 °F 70% 30.34 in 10.0 mi ENE 4.6 mph - N/A   Clear
9:15 PM 70.7 °F - 61.0 °F 71% 30.35 in 10.0 mi ENE 4.6 mph - N/A   Clear
9:35 PM 68.4 °F - 61.7 °F 79% 30.35 in 10.0 mi East 5.8 mph - N/A   Scattered Clouds
9:55 PM 67.8 °F - 61.9 °F 81% 30.36 in 10.0 mi East 4.6 mph - N/A   Scattered Clouds
10:15 PM 67.1 °F - 62.4 °F 85% 30.36 in 10.0 mi East 5.8 mph - N/A   Mostly Cloudy
10:35 PM 65.7 °F - 62.4 °F 89% 30.36 in 10.0 mi Calm Calm - N/A   Scattered Clouds
10:55 PM 66.0 °F - 61.9 °F 86% 30.37 in 10.0 mi Calm Calm - N/A   Clear
11:15 PM 66.2 °F - 61.7 °F 85% 30.37 in 10.0 mi Calm Calm - N/A   Clear
11:35 PM 64.6 °F - 61.5 °F 90% 30.37 in 10.0 mi Calm Calm - N/A   Clear
11:55 PM 63.7 °F - 61.3 °F 92% 30.37 in 10.0 mi Calm Calm - N/A   Clear